User: anonymous   Login
Location: *
(48.8667°N, 2.3331°E)
Time: 17:10:59
(UTC+00:00)
Language:

STARLINK-1246 - Orbit

View from above orbital plane
View from above orbital plane
View from above satellite
View from above satellite

Ground track
Ground track

The orbit data is extracted from the following two-line orbital elements,

1 45235U 20012BK  20196.58334491 -.00023752  00000-0 -16159-2 0  9994
2 45235  52.9982 312.7497 0001173 106.0262 326.4495 15.05593286 22830
Epoch (UTC): 14 July 2020 14:00:01
Eccentricity: 0.0001173
inclination: 52.9982°
perigee height: 549 km
apogee height: 550 km
right ascension of ascending node: 312.7497°
argument of perigee: 106.0262°
revolutions per day: 15.05593286
mean anomaly at epoch: 326.4495°
orbit number at epoch: 2283

The dashed part of the orbit path shows where the satellite is in the earth's shadow,  

DLR